Location: Cicognara
(44.9500°N, 10.4667°E)
Time: 14:03:38
(UTC+00:00)

Cosmos 1346 Rocket - Pass Details

Date: 20 June 2021
Orbit: 526 x 551 km, 81.2° (Epoch: 03 August)

Event Time Altitude Azimuth Distance (km) Brightness Sun altitude
Exits shadow 21:46:24 32° 206° (SSW) 945 3.6 -18.4°
Maximum altitude 21:48:07 70° 281° (WNW) 587 3.0 -18.5°
Drops below altitude 10° 21:52:09 10° 6° (N) 1,833 6.4 -18.7°
Sets 21:54:21 0° 9° (N) 2,734 7.4 -18.9°
